EZY22AB LEPA-EGNS

Flight info

Callsign EZY22AB
Flight time 2h 24m
Altitude 36000
Route DRAGO DCT PAPOS DCT UMURE N863 GIROM DCT AGN DCT SECHE DCT UVELI DCT CNA DCT MANAK DCT MUREL DCT NOZHU/N0445F370 DCT SHIRI DCT TOJAQ DCT EPACE DCT ACCOP DCT MOCQO DCT MONTY/N0449F380 UN864 WAL L10 IOM
Aircraft A320/M-SDE3FGHIRWY/LB1

Departure

Time 2026-05-08 10:48
Airport Palma de Mallorca Airport (LEPA)

Arrival

Time 2026-05-08 13:13
Airport Isle of Man Airport (EGNS)
Time Latitude Longitude Altitude Speed Heading
2026-05-08 10:23 39.55286 2.73295 30 ft 0 kts 197°
2026-05-08 10:36 39.55290 2.73297 30 ft 3 kts 197°
2026-05-08 10:36 39.55315 2.73307 30 ft 4 kts 195°
2026-05-08 10:36 39.55342 2.73315 30 ft 4 kts 191°
2026-05-08 10:36 39.55368 2.73318 30 ft 4 kts 165°
2026-05-08 10:37 39.55382 2.73313 30 ft 2 kts 59°
2026-05-08 10:37 39.55381 2.73312 30 ft 0 kts 57°
2026-05-08 10:39 39.55382 2.73313 30 ft 0 kts 57°
2026-05-08 10:39 39.55391 2.73332 30 ft 6 kts 57°
2026-05-08 10:39 39.55415 2.73381 30 ft 6 kts 57°
2026-05-08 10:40 39.55427 2.73423 30 ft 4 kts 107°
2026-05-08 10:40 39.55404 2.73459 30 ft 6 kts 147°
2026-05-08 10:40 39.55367 2.73489 30 ft 9 kts 148°
2026-05-08 10:40 39.55307 2.73538 30 ft 11 kts 148°
2026-05-08 10:41 39.55238 2.73592 30 ft 12 kts 149°
2026-05-08 10:41 39.55174 2.73667 30 ft 12 kts 99°
2026-05-08 10:41 39.55171 2.73766 30 ft 11 kts 94°
2026-05-08 10:41 39.55165 2.73861 30 ft 11 kts 128°
2026-05-08 10:42 39.55095 2.73917 30 ft 13 kts 149°
2026-05-08 10:42 39.55016 2.73979 30 ft 14 kts 149°
2026-05-08 10:42 39.54930 2.74047 30 ft 15 kts 148°
2026-05-08 10:42 39.54835 2.74118 30 ft 16 kts 161°
2026-05-08 10:43 39.54751 2.74043 30 ft 15 kts 238°
2026-05-08 10:43 39.54699 2.73934 30 ft 13 kts 238°
2026-05-08 10:43 39.54654 2.73839 30 ft 12 kts 238°
2026-05-08 10:43 39.54615 2.73756 30 ft 10 kts 238°
2026-05-08 10:44 39.54581 2.73684 30 ft 10 kts 238°
2026-05-08 10:44 39.54543 2.73604 30 ft 11 kts 239°
2026-05-08 10:44 39.54501 2.73512 30 ft 13 kts 239°
2026-05-08 10:44 39.54453 2.73410 30 ft 14 kts 238°
2026-05-08 10:45 39.54398 2.73295 30 ft 16 kts 238°
2026-05-08 10:45 39.54336 2.73164 30 ft 18 kts 239°
2026-05-08 10:45 39.54271 2.73024 30 ft 16 kts 238°
2026-05-08 10:45 39.54220 2.72937 30 ft 11 kts 211°
2026-05-08 10:46 39.54163 2.72954 30 ft 8 kts 124°
2026-05-08 10:46 39.54155 2.73030 30 ft 9 kts 95°
2026-05-08 10:46 39.54149 2.73118 30 ft 10 kts 95°
2026-05-08 10:46 39.54151 2.73216 30 ft 12 kts 67°
2026-05-08 10:47 39.54177 2.73275 30 ft 0 kts 58°
2026-05-08 10:47 39.54183 2.73286 30 ft 9 kts 58°
2026-05-08 10:48 39.54349 2.73648 30 ft 82 kts 59°
2026-05-08 10:48 39.54755 2.74501 30 ft 138 kts 58°
2026-05-08 10:48 39.55324 2.75702 239 ft 164 kts 61°
2026-05-08 10:48 39.55933 2.77029 660 ft 186 kts 61°
2026-05-08 10:49 39.56615 2.78548 1309 ft 198 kts 60°
2026-05-08 10:49 39.57326 2.80114 2135 ft 203 kts 62°
2026-05-08 10:49 39.58047 2.81693 2966 ft 204 kts 62°
2026-05-08 10:49 39.58778 2.83290 3673 ft 209 kts 62°
2026-05-08 10:50 39.59529 2.84932 4441 ft 213 kts 62°
2026-05-08 10:50 39.60291 2.86599 5201 ft 216 kts 62°
2026-05-08 10:50 39.61062 2.88290 5939 ft 220 kts 62°
2026-05-08 10:50 39.62027 2.89853 6609 ft 229 kts 38°
2026-05-08 10:51 39.63514 2.90639 7255 ft 238 kts
2026-05-08 10:51 39.65154 2.90286 7918 ft 245 kts 333°
2026-05-08 10:51 39.66070 2.89425 8380 ft 248 kts 310°
2026-05-08 10:51 39.66905 2.87489 9098 ft 248 kts 289°
2026-05-08 10:52 39.67458 2.85362 9872 ft 249 kts 284°
2026-05-08 10:52 39.67899 2.83185 10581 ft 250 kts 280°
2026-05-08 10:52 39.68226 2.80972 11307 ft 250 kts 275°
2026-05-08 10:52 39.68436 2.78733 12037 ft 250 kts 272°
2026-05-08 10:53 39.68565 2.76477 12776 ft 252 kts 274°
2026-05-08 10:53 39.68880 2.74212 13398 ft 264 kts 281°
2026-05-08 10:53 39.69493 2.71855 13680 ft 289 kts 290°
2026-05-08 10:53 39.70337 2.69370 13925 ft 313 kts 291°
2026-05-08 10:54 39.71250 2.66691 14127 ft 336 kts 291°
2026-05-08 10:54 39.72220 2.63847 14476 ft 349 kts 291°
2026-05-08 10:54 39.73212 2.60935 15062 ft 354 kts 291°
2026-05-08 10:54 39.74210 2.58002 15695 ft 357 kts 291°
2026-05-08 10:55 39.75216 2.55044 16332 ft 359 kts 291°
2026-05-08 10:55 39.76226 2.52060 16964 ft 362 kts 291°
2026-05-08 10:55 39.77240 2.49055 17605 ft 364 kts 291°
2026-05-08 10:55 39.78260 2.46028 18239 ft 367 kts 291°
2026-05-08 10:56 39.79276 2.43007 18801 ft 369 kts 291°
2026-05-08 10:56 39.80307 2.39941 19379 ft 370 kts 290°
2026-05-08 10:56 39.81337 2.36868 19955 ft 371 kts 290°
2026-05-08 10:56 39.82370 2.33787 20527 ft 372 kts 290°
2026-05-08 10:57 39.83405 2.30698 21092 ft 373 kts 289°
2026-05-08 10:57 39.84427 2.27591 21641 ft 374 kts 288°
2026-05-08 10:57 39.86444 2.21329 22712 ft 376 kts 288°
2026-05-08 10:58 39.87440 2.18224 23223 ft 378 kts 288°
2026-05-08 10:58 39.88456 2.15059 23714 ft 379 kts 287°
2026-05-08 10:58 39.89478 2.11878 24120 ft 381 kts 287°
2026-05-08 10:58 39.90504 2.08686 24518 ft 383 kts 287°
2026-05-08 10:59 39.91536 2.05476 24921 ft 385 kts 287°
2026-05-08 10:59 39.92573 2.02248 25298 ft 387 kts 286°
2026-05-08 10:59 39.93615 1.99002 25674 ft 389 kts 286°
2026-05-08 10:59 39.94659 1.95739 26048 ft 391 kts 286°
2026-05-08 11:00 39.95707 1.92457 26418 ft 393 kts 285°
2026-05-08 11:00 39.96760 1.89159 26786 ft 395 kts 285°
2026-05-08 11:00 39.97820 1.85845 27153 ft 397 kts 285°
2026-05-08 11:00 39.98928 1.82532 27510 ft 403 kts 290°
2026-05-08 11:01 40.00458 1.79409 27862 ft 416 kts 301°
2026-05-08 11:01 40.02514 1.76669 28196 ft 431 kts 313°
2026-05-08 11:01 40.05052 1.74470 28525 ft 447 kts 325°
2026-05-08 11:01 40.07953 1.72872 28839 ft 456 kts 330°
2026-05-08 11:02 40.10925 1.71361 29150 ft 459 kts 330°
2026-05-08 11:02 40.16908 1.68310 29763 ft 464 kts 330°
2026-05-08 11:02 40.19920 1.66762 30053 ft 466 kts 330°
2026-05-08 11:03 40.22945 1.65204 30307 ft 468 kts 330°
2026-05-08 11:03 40.25946 1.63657 30560 ft 470 kts 330°
2026-05-08 11:03 40.28998 1.62081 30827 ft 471 kts 330°
2026-05-08 11:03 40.32055 1.60501 31094 ft 473 kts 330°
2026-05-08 11:04 40.35117 1.58916 31338 ft 474 kts 331°
2026-05-08 11:04 40.38192 1.57320 31587 ft 476 kts 331°
2026-05-08 11:04 40.41272 1.55721 31834 ft 477 kts 331°
2026-05-08 11:04 40.44371 1.54117 32139 ft 477 kts 331°
2026-05-08 11:05 40.47455 1.52525 32491 ft 476 kts 331°
2026-05-08 11:05 40.50532 1.50935 32820 ft 475 kts 331°
2026-05-08 11:05 40.53602 1.49345 33160 ft 474 kts 331°
2026-05-08 11:05 40.56666 1.47754 33482 ft 473 kts 331°
2026-05-08 11:06 40.59724 1.46160 33824 ft 472 kts 331°
2026-05-08 11:06 40.62774 1.44569 34132 ft 472 kts 331°
2026-05-08 11:06 40.65826 1.42974 34408 ft 471 kts 331°
2026-05-08 11:06 40.68873 1.41381 34686 ft 470 kts 332°
2026-05-08 11:07 40.71912 1.39791 34962 ft 470 kts 332°
2026-05-08 11:07 40.74947 1.38203 35225 ft 469 kts 332°
2026-05-08 11:07 40.77978 1.36619 35482 ft 468 kts 332°
2026-05-08 11:07 40.81008 1.35037 35730 ft 468 kts 332°
2026-05-08 11:08 40.84030 1.33456 35961 ft 467 kts 332°
2026-05-08 11:08 40.90042 1.30296 36040 ft 462 kts 332°
2026-05-08 11:09 40.96006 1.27147 36037 ft 461 kts 332°
2026-05-08 11:09 41.01960 1.23994 36021 ft 461 kts 332°
2026-05-08 11:10 41.07871 1.20871 36028 ft 461 kts 332°
2026-05-08 11:10 41.13868 1.17843 36034 ft 464 kts 339°
2026-05-08 11:11 41.20320 1.16569 36030 ft 473 kts 351°
2026-05-08 11:11 41.26878 1.15897 36035 ft 473 kts 351°
2026-05-08 11:12 41.33438 1.15185 36034 ft 473 kts 351°
2026-05-08 11:12 41.39994 1.14487 36040 ft 473 kts 351°
2026-05-08 11:13 41.46553 1.13798 36039 ft 472 kts 351°
2026-05-08 11:13 41.53103 1.13115 36034 ft 472 kts 351°
2026-05-08 11:14 41.59652 1.12431 36035 ft 472 kts 351°
2026-05-08 11:14 41.66193 1.11733 36033 ft 471 kts 351°
2026-05-08 11:15 41.72684 1.11039 36031 ft 471 kts 351°
2026-05-08 11:15 41.79215 1.10351 36029 ft 470 kts 352°
2026-05-08 11:16 41.85737 1.09660 36027 ft 470 kts 352°
2026-05-08 11:16 41.92247 1.08971 36021 ft 469 kts 352°
2026-05-08 11:17 41.98753 1.08271 36017 ft 468 kts 352°
2026-05-08 11:17 42.05248 1.07566 36015 ft 468 kts 352°
2026-05-08 11:18 42.11732 1.06858 36015 ft 468 kts 352°
2026-05-08 11:18 42.18221 1.06162 36015 ft 468 kts 352°
2026-05-08 11:19 42.24706 1.05477 36030 ft 467 kts 352°
2026-05-08 11:19 42.31190 1.04780 36042 ft 467 kts 352°
2026-05-08 11:20 42.37667 1.04071 36033 ft 467 kts 352°
2026-05-08 11:20 42.44098 1.03373 36026 ft 467 kts 352°
2026-05-08 11:21 42.50576 1.02669 36021 ft 467 kts 352°
2026-05-08 11:21 42.57049 1.01964 36001 ft 466 kts 352°
2026-05-08 11:22 42.63519 1.01259 36001 ft 466 kts 352°
2026-05-08 11:22 42.69987 1.00548 36002 ft 466 kts 352°
2026-05-08 11:23 42.76441 0.99837 35976 ft 465 kts 352°
2026-05-08 11:23 42.82895 0.99127 35980 ft 465 kts 352°
2026-05-08 11:24 42.89341 0.98419 35967 ft 464 kts 352°
2026-05-08 11:24 42.95771 0.97711 35970 ft 463 kts 352°
2026-05-08 11:25 43.02197 0.97002 35758 ft 462 kts 352°
2026-05-08 11:25 43.05398 0.96647 35917 ft 460 kts 352°
2026-05-08 11:25 43.08597 0.96289 35952 ft 462 kts 352°
2026-05-08 11:26 43.15005 0.95583 35962 ft 461 kts 352°
2026-05-08 11:26 43.21362 0.94887 35963 ft 460 kts 352°
2026-05-08 11:27 43.27739 0.94170 35965 ft 459 kts 352°
2026-05-08 11:27 43.34101 0.93454 35965 ft 459 kts 352°
2026-05-08 11:28 43.40463 0.92744 35962 ft 458 kts 352°
2026-05-08 11:28 43.46811 0.92044 35963 ft 457 kts 352°
2026-05-08 11:29 43.53150 0.91328 35964 ft 457 kts 352°
2026-05-08 11:29 43.59477 0.90613 35964 ft 456 kts 352°
2026-05-08 11:30 43.65796 0.89893 35960 ft 455 kts 352°
2026-05-08 11:30 43.72106 0.89180 35962 ft 455 kts 352°
2026-05-08 11:31 43.78415 0.88471 35960 ft 454 kts 352°
2026-05-08 11:31 43.84673 0.87765 35961 ft 454 kts 352°
2026-05-08 11:32 43.90767 0.85953 35959 ft 444 kts 334°
2026-05-08 11:32 43.96361 0.82420 35961 ft 442 kts 331°
2026-05-08 11:33 44.01937 0.78819 35962 ft 442 kts 331°
2026-05-08 11:33 44.07513 0.75223 35961 ft 442 kts 331°
2026-05-08 11:34 44.13083 0.71621 35959 ft 441 kts 331°
2026-05-08 11:34 44.18649 0.68010 35961 ft 441 kts 331°
2026-05-08 11:35 44.24209 0.64397 35957 ft 441 kts 331°
2026-05-08 11:35 44.29762 0.60772 35961 ft 441 kts 331°
2026-05-08 11:36 44.35318 0.57135 35956 ft 441 kts 331°
2026-05-08 11:36 44.40866 0.53497 35952 ft 441 kts 331°
2026-05-08 11:37 44.46415 0.49851 35955 ft 440 kts 331°
2026-05-08 11:37 44.51955 0.46184 35956 ft 440 kts 330°
2026-05-08 11:38 44.57482 0.42505 35961 ft 440 kts 330°
2026-05-08 11:38 44.62976 0.38852 35958 ft 440 kts 330°
2026-05-08 11:39 44.68498 0.35177 35958 ft 439 kts 330°
2026-05-08 11:39 44.74017 0.31486 35955 ft 439 kts 330°
2026-05-08 11:40 44.78641 0.28389 35957 ft 439 kts 330°
2026-05-08 11:40 44.84153 0.24680 35955 ft 439 kts 330°
2026-05-08 11:41 44.89669 0.20965 35960 ft 439 kts 330°
2026-05-08 11:41 44.95144 0.17280 35965 ft 439 kts 330°
2026-05-08 11:42 45.00650 0.13562 35969 ft 439 kts 330°
2026-05-08 11:42 45.06151 0.09839 35973 ft 438 kts 330°
2026-05-08 11:43 45.11649 0.06119 35974 ft 437 kts 330°
2026-05-08 11:43 45.17137 0.02384 35970 ft 437 kts 330°
2026-05-08 11:44 45.22621 -0.01353 35973 ft 437 kts 330°
2026-05-08 11:44 45.28107 -0.05096 35973 ft 437 kts 330°
2026-05-08 11:45 45.33589 -0.08840 35974 ft 437 kts 330°
2026-05-08 11:45 45.39067 -0.12598 35973 ft 437 kts 330°
2026-05-08 11:46 45.44539 -0.16361 35975 ft 436 kts 330°
2026-05-08 11:46 45.50007 -0.20121 35982 ft 436 kts 330°
2026-05-08 11:47 45.55466 -0.23887 35981 ft 436 kts 330°
2026-05-08 11:47 45.60915 -0.27662 35981 ft 435 kts 330°
2026-05-08 11:48 45.66274 -0.31634 35977 ft 431 kts 322°
2026-05-08 11:48 45.70981 -0.36795 35973 ft 429 kts 318°
2026-05-08 11:49 45.75665 -0.42085 35971 ft 429 kts 318°
2026-05-08 11:49 45.80354 -0.47381 35967 ft 429 kts 318°
2026-05-08 11:50 45.85046 -0.52684 35964 ft 429 kts 318°
2026-05-08 11:50 45.89729 -0.58005 35959 ft 429 kts 318°
2026-05-08 11:51 45.94417 -0.63339 35968 ft 430 kts 318°
2026-05-08 11:51 45.99107 -0.68675 35968 ft 430 kts 318°
2026-05-08 11:52 46.03791 -0.74027 35972 ft 430 kts 318°
2026-05-08 11:52 46.08445 -0.79361 35972 ft 430 kts 318°
2026-05-08 11:53 46.13125 -0.84725 35969 ft 430 kts 318°
2026-05-08 11:53 46.17809 -0.90113 35973 ft 430 kts 318°
2026-05-08 11:54 46.22632 -0.95216 35970 ft 434 kts 328°
2026-05-08 11:54 46.27949 -0.99382 35969 ft 435 kts 328°
2026-05-08 11:55 46.33265 -1.03561 35971 ft 435 kts 328°
2026-05-08 11:55 46.38582 -1.07751 35978 ft 435 kts 328°
2026-05-08 11:56 46.43897 -1.11948 35980 ft 435 kts 328°
2026-05-08 11:56 46.49204 -1.16152 35976 ft 435 kts 328°
2026-05-08 11:57 46.54511 -1.20368 35973 ft 435 kts 328°
2026-05-08 11:57 46.59786 -1.24557 35978 ft 435 kts 328°
2026-05-08 11:58 46.65095 -1.28779 35981 ft 435 kts 328°
2026-05-08 11:58 46.70399 -1.33021 35985 ft 435 kts 328°
2026-05-08 11:59 46.78342 -1.39396 35980 ft 434 kts 328°
2026-05-08 11:59 46.83640 -1.43652 35974 ft 434 kts 328°
2026-05-08 12:00 46.88931 -1.47913 35971 ft 434 kts 328°
2026-05-08 12:00 46.94218 -1.52180 35968 ft 434 kts 328°
2026-05-08 12:01 46.99500 -1.56457 35967 ft 434 kts 328°
2026-05-08 12:01 47.04778 -1.60745 35972 ft 434 kts 328°
2026-05-08 12:02 47.10068 -1.65038 35980 ft 434 kts 328°
2026-05-08 12:02 47.15350 -1.69334 35985 ft 434 kts 328°
2026-05-08 12:03 47.20622 -1.73646 35986 ft 433 kts 327°
2026-05-08 12:03 47.25886 -1.77961 35979 ft 433 kts 328°
2026-05-08 12:04 47.31116 -1.82255 35973 ft 433 kts 327°
2026-05-08 12:04 47.36369 -1.86578 35972 ft 433 kts 327°
2026-05-08 12:05 47.41626 -1.90906 35968 ft 432 kts 327°
2026-05-08 12:05 47.46881 -1.95239 35972 ft 433 kts 327°
2026-05-08 12:06 47.52141 -1.99577 35974 ft 433 kts 327°
2026-05-08 12:06 47.57392 -2.03938 35975 ft 433 kts 327°
2026-05-08 12:07 47.62636 -2.08314 35973 ft 433 kts 327°
2026-05-08 12:07 47.67886 -2.12696 35976 ft 433 kts 327°
2026-05-08 12:08 47.73139 -2.17084 35978 ft 433 kts 327°
2026-05-08 12:08 47.78390 -2.21479 35982 ft 433 kts 327°
2026-05-08 12:09 47.83641 -2.25883 35984 ft 433 kts 327°
2026-05-08 12:09 47.88881 -2.30299 35982 ft 433 kts 327°
2026-05-08 12:10 47.94082 -2.34687 35983 ft 432 kts 327°
2026-05-08 12:10 47.99315 -2.39116 35981 ft 432 kts 327°
2026-05-08 12:11 48.04546 -2.43553 35977 ft 432 kts 327°
2026-05-08 12:11 48.09777 -2.47995 35981 ft 432 kts 327°
2026-05-08 12:12 48.15007 -2.52441 35983 ft 432 kts 327°
2026-05-08 12:12 48.20228 -2.56901 35982 ft 432 kts 327°
2026-05-08 12:13 48.25443 -2.61371 35987 ft 432 kts 327°
2026-05-08 12:13 48.30662 -2.65847 35993 ft 432 kts 327°
2026-05-08 12:14 48.35881 -2.70323 35998 ft 432 kts 327°
2026-05-08 12:14 48.41064 -2.74780 36005 ft 431 kts 327°
2026-05-08 12:15 48.46272 -2.79278 36006 ft 431 kts 327°
2026-05-08 12:15 48.51477 -2.83780 36005 ft 431 kts 327°
2026-05-08 12:16 48.56675 -2.88299 36003 ft 431 kts 326°
2026-05-08 12:16 48.61867 -2.92827 36007 ft 431 kts 326°
2026-05-08 12:17 48.67063 -2.97360 36007 ft 431 kts 326°
2026-05-08 12:17 48.72265 -3.01899 36004 ft 431 kts 327°
2026-05-08 12:18 48.77465 -3.06449 36013 ft 431 kts 326°
2026-05-08 12:18 48.82660 -3.11019 36017 ft 431 kts 326°
2026-05-08 12:19 48.87813 -3.15559 36016 ft 431 kts 326°
2026-05-08 12:19 48.93002 -3.20137 36001 ft 431 kts 326°
2026-05-08 12:20 48.98185 -3.24726 36007 ft 431 kts 326°
2026-05-08 12:20 49.03367 -3.29316 36013 ft 431 kts 326°
2026-05-08 12:21 49.08550 -3.33929 36016 ft 431 kts 326°
2026-05-08 12:21 49.13730 -3.38551 36027 ft 431 kts 326°
2026-05-08 12:22 49.18917 -3.43175 36032 ft 431 kts 326°
2026-05-08 12:22 49.24098 -3.47815 36032 ft 432 kts 326°
2026-05-08 12:23 49.29277 -3.52465 36036 ft 432 kts 326°
2026-05-08 12:23 49.34689 -3.56500 36033 ft 436 kts 336°
2026-05-08 12:24 49.40393 -3.59719 36031 ft 436 kts 336°
2026-05-08 12:24 49.46083 -3.62980 36037 ft 436 kts 335°
2026-05-08 12:25 49.51774 -3.66258 36040 ft 437 kts 335°
2026-05-08 12:25 49.57465 -3.69529 36039 ft 437 kts 335°
2026-05-08 12:26 49.63117 -3.72783 36042 ft 436 kts 335°
2026-05-08 12:26 49.68914 -3.75605 36045 ft 442 kts 347°
2026-05-08 12:27 49.75100 -3.75787 36045 ft 449 kts
2026-05-08 12:27 49.80310 -3.75159 36044 ft 449 kts
2026-05-08 12:28 49.86495 -3.74445 36043 ft 448 kts
2026-05-08 12:28 49.92713 -3.73717 36044 ft 448 kts
2026-05-08 12:29 49.98932 -3.72979 36043 ft 448 kts
2026-05-08 12:29 50.05147 -3.72239 36050 ft 448 kts
2026-05-08 12:30 50.11357 -3.71494 36047 ft 447 kts
2026-05-08 12:30 50.17565 -3.70747 36048 ft 447 kts
2026-05-08 12:31 50.23772 -3.70004 36050 ft 447 kts
2026-05-08 12:31 50.29976 -3.69267 36049 ft 447 kts
2026-05-08 12:32 50.36173 -3.68515 36057 ft 447 kts
2026-05-08 12:32 50.42371 -3.67741 36053 ft 447 kts
2026-05-08 12:33 50.48560 -3.66665 36054 ft 448 kts
2026-05-08 12:33 50.54748 -3.65381 36059 ft 448 kts
2026-05-08 12:34 50.60926 -3.64140 36063 ft 447 kts
2026-05-08 12:34 50.67102 -3.62959 36062 ft 447 kts
2026-05-08 12:35 50.73289 -3.61794 36061 ft 447 kts
2026-05-08 12:35 50.79469 -3.60615 36066 ft 447 kts
2026-05-08 12:36 50.85607 -3.59431 36070 ft 447 kts
2026-05-08 12:36 50.91776 -3.58250 36060 ft 447 kts
2026-05-08 12:37 50.97957 -3.57049 36054 ft 447 kts
2026-05-08 12:37 51.04127 -3.55846 36042 ft 447 kts
2026-05-08 12:38 51.10295 -3.54651 36042 ft 447 kts
2026-05-08 12:38 51.16468 -3.53454 36044 ft 446 kts
2026-05-08 12:39 51.22636 -3.52250 36047 ft 447 kts
2026-05-08 12:39 51.28809 -3.51034 36049 ft 446 kts
2026-05-08 12:40 51.34972 -3.49809 36050 ft 446 kts
2026-05-08 12:40 51.41140 -3.48589 36049 ft 447 kts
2026-05-08 12:41 51.47307 -3.47374 36050 ft 447 kts
2026-05-08 12:41 51.53485 -3.46153 36048 ft 447 kts
2026-05-08 12:42 51.59661 -3.44923 36043 ft 447 kts
2026-05-08 12:42 51.65796 -3.43689 36046 ft 447 kts
2026-05-08 12:43 51.71980 -3.42452 36056 ft 448 kts
2026-05-08 12:43 51.78164 -3.41214 36059 ft 448 kts
2026-05-08 12:44 51.84350 -3.39965 36059 ft 448 kts
2026-05-08 12:44 51.90536 -3.38725 36058 ft 448 kts
2026-05-08 12:45 51.96734 -3.37725 36054 ft 446 kts 358°
2026-05-08 12:45 52.02917 -3.37340 36053 ft 444 kts 356°
2026-05-08 12:46 52.09105 -3.37075 36056 ft 445 kts 356°
2026-05-08 12:46 52.15290 -3.36684 36055 ft 445 kts 357°
2026-05-08 12:47 52.21444 -3.36214 36063 ft 445 kts 357°
2026-05-08 12:47 52.27635 -3.35729 36068 ft 445 kts 357°
2026-05-08 12:48 52.33817 -3.35274 36068 ft 445 kts 357°
2026-05-08 12:48 52.40007 -3.34832 36067 ft 445 kts 357°
2026-05-08 12:49 52.46208 -3.34251 36072 ft 449 kts
2026-05-08 12:49 52.52348 -3.32004 36075 ft 453 kts
2026-05-08 12:50 52.58490 -3.29580 36076 ft 454 kts
2026-05-08 12:50 52.64630 -3.27170 36080 ft 454 kts
2026-05-08 12:51 52.73849 -3.23533 36085 ft 454 kts
2026-05-08 12:52 52.79994 -3.21096 36090 ft 454 kts
2026-05-08 12:52 52.89234 -3.17567 36091 ft 451 kts
2026-05-08 12:53 52.95440 -3.16916 36070 ft 446 kts 357°
2026-05-08 12:53 52.98542 -3.16679 35558 ft 446 kts 357°
2026-05-08 12:53 53.01635 -3.16439 34936 ft 445 kts 356°
2026-05-08 12:54 53.04732 -3.16195 34294 ft 445 kts 356°
2026-05-08 12:54 53.07826 -3.15947 33597 ft 445 kts 356°
2026-05-08 12:54 53.10919 -3.15697 32798 ft 445 kts 357°
2026-05-08 12:54 53.14017 -3.15448 32029 ft 446 kts 357°
2026-05-08 12:55 53.17103 -3.15206 31431 ft 442 kts 357°
2026-05-08 12:55 53.20165 -3.14967 30888 ft 439 kts 357°
2026-05-08 12:55 53.23201 -3.14726 30341 ft 435 kts 358°
2026-05-08 12:55 53.26217 -3.14482 29743 ft 432 kts 358°
2026-05-08 12:56 53.29209 -3.14236 29121 ft 429 kts 358°
2026-05-08 12:56 53.32135 -3.14050 28533 ft 423 kts 354°
2026-05-08 12:56 53.35016 -3.14619 27959 ft 412 kts 342°
2026-05-08 12:56 53.37706 -3.16082 27370 ft 403 kts 331°
2026-05-08 12:57 53.40138 -3.18315 26798 ft 395 kts 321°
2026-05-08 12:57 53.42268 -3.21234 26190 ft 387 kts 311°
2026-05-08 12:57 53.43991 -3.24640 25618 ft 381 kts 302°
2026-05-08 12:57 53.45509 -3.28206 25034 ft 380 kts 302°
2026-05-08 12:58 53.47048 -3.31826 24467 ft 379 kts 302°
2026-05-08 12:58 53.48572 -3.35420 23914 ft 378 kts 302°
2026-05-08 12:58 53.50092 -3.39016 23330 ft 376 kts 302°
2026-05-08 12:58 53.51602 -3.42595 22741 ft 374 kts 302°
2026-05-08 12:59 53.53105 -3.46152 22201 ft 372 kts 302°
2026-05-08 12:59 53.54600 -3.49689 21670 ft 370 kts 302°
2026-05-08 12:59 53.56084 -3.53203 21173 ft 367 kts 302°
2026-05-08 12:59 53.57555 -3.56699 20650 ft 363 kts 302°
2026-05-08 13:00 53.59005 -3.60150 19799 ft 359 kts 302°
2026-05-08 13:00 53.60439 -3.63566 18996 ft 356 kts 302°
2026-05-08 13:00 53.61862 -3.66957 18169 ft 353 kts 302°
2026-05-08 13:00 53.63273 -3.70323 17302 ft 350 kts 302°
2026-05-08 13:01 53.64668 -3.73654 16460 ft 346 kts 302°
2026-05-08 13:01 53.66049 -3.76962 15663 ft 343 kts 302°
2026-05-08 13:01 53.67417 -3.80245 14901 ft 340 kts 303°
2026-05-08 13:01 53.68770 -3.83499 14170 ft 338 kts 303°
2026-05-08 13:02 53.70113 -3.86731 13404 ft 335 kts 303°
2026-05-08 13:02 53.71442 -3.89928 12642 ft 331 kts 303°
2026-05-08 13:02 53.72754 -3.93087 11899 ft 326 kts 303°
2026-05-08 13:02 53.74046 -3.96207 11169 ft 322 kts 302°
2026-05-08 13:03 53.75322 -3.99292 10452 ft 318 kts 302°
2026-05-08 13:03 53.76562 -4.02288 9919 ft 309 kts 302°
2026-05-08 13:03 53.77752 -4.05160 9657 ft 290 kts 302°
2026-05-08 13:03 53.78894 -4.07923 9082 ft 284 kts 302°
2026-05-08 13:04 53.80014 -4.10651 8444 ft 281 kts 302°
2026-05-08 13:04 53.81123 -4.13359 7802 ft 279 kts 302°
2026-05-08 13:04 53.82223 -4.16042 7171 ft 276 kts 303°
2026-05-08 13:04 53.83313 -4.18705 6555 ft 274 kts 303°
2026-05-08 13:05 53.84393 -4.21345 5905 ft 272 kts 303°
2026-05-08 13:05 53.85468 -4.23963 5259 ft 269 kts 303°
2026-05-08 13:05 53.86538 -4.26573 4753 ft 269 kts 303°
2026-05-08 13:05 53.87601 -4.29173 4363 ft 266 kts 303°
2026-05-08 13:06 53.88650 -4.31740 3964 ft 264 kts 303°
2026-05-08 13:06 53.89692 -4.34290 3566 ft 262 kts 303°
2026-05-08 13:06 53.90758 -4.36782 3164 ft 260 kts 312°
2026-05-08 13:06 53.92205 -4.38573 2779 ft 258 kts 336°
2026-05-08 13:07 53.93944 -4.39181 2384 ft 256 kts 359°
2026-05-08 13:07 53.95723 -4.39167 2054 ft 254 kts
2026-05-08 13:07 53.97472 -4.39146 2030 ft 255 kts
2026-05-08 13:07 53.99220 -4.39127 2031 ft 243 kts
2026-05-08 13:08 54.00851 -4.39112 2033 ft 226 kts
2026-05-08 13:08 54.02379 -4.39098 2031 ft 212 kts
2026-05-08 13:08 54.03809 -4.39084 2026 ft 199 kts
2026-05-08 13:08 54.05141 -4.39072 2052 ft 182 kts 360°
2026-05-08 13:09 54.06348 -4.39062 2043 ft 168 kts 360°
2026-05-08 13:09 54.07487 -4.39055 2035 ft 161 kts 360°
2026-05-08 13:09 54.08586 -4.39234 2033 ft 157 kts 343°
2026-05-08 13:09 54.09534 -4.40056 2050 ft 152 kts 321°
2026-05-08 13:10 54.10218 -4.41391 2040 ft 150 kts 300°
2026-05-08 13:10 54.10558 -4.43047 2035 ft 149 kts 278°
2026-05-08 13:10 54.10517 -4.44799 1960 ft 148 kts 257°
2026-05-08 13:10 54.10303 -4.46515 1800 ft 148 kts 258°
2026-05-08 13:11 54.10091 -4.48231 1620 ft 147 kts 258°
2026-05-08 13:11 54.09883 -4.49905 1425 ft 143 kts 258°
2026-05-08 13:11 54.09678 -4.51559 1230 ft 142 kts 258°
2026-05-08 13:11 54.09474 -4.53196 1042 ft 141 kts 258°
2026-05-08 13:12 54.09272 -4.54823 848 ft 139 kts 257°
2026-05-08 13:12 54.09073 -4.56417 653 ft 137 kts 256°
2026-05-08 13:12 54.08943 -4.57460 534 ft 135 kts 256°
2026-05-08 13:12 54.08686 -4.59523 296 ft 134 kts 255°
2026-05-08 13:13 54.08556 -4.60568 161 ft 133 kts 255°
2026-05-08 13:13 54.08308 -4.62519 44 ft 112 kts 256°
2026-05-08 13:13 54.08218 -4.63257 40 ft 21 kts 270°
2026-05-08 13:13 54.08244 -4.63325 39 ft 1 kts 349°
2026-05-08 13:14 54.08331 -4.63353 41 ft 19 kts 339°
2026-05-08 13:14 54.08387 -4.63380 41 ft 11 kts 345°
2026-05-08 13:14 54.08449 -4.63389 44 ft 7 kts 12°
2026-05-08 13:14 54.08477 -4.63357 45 ft 3 kts 37°
2026-05-08 13:15 54.08493 -4.63337 46 ft 4 kts 37°
2026-05-08 13:15 54.08525 -4.63334 46 ft 4 kts 328°
2026-05-08 13:15 54.08545 -4.63367 46 ft 3 kts 331°
2026-05-08 13:15 54.08573 -4.63344 43 ft 5 kts 47°
2026-05-08 13:16 54.08587 -4.63318 46 ft 0 kts 45°
2026-05-08 13:16 54.08588 -4.63317 46 ft 0 kts 45°
2026-05-08 13:16 54.08589 -4.63316 46 ft 0 kts 45°
2026-05-08 13:16 54.08589 -4.63315 46 ft 0 kts 45°